Location: Unspecified
(0.0000°N, 0.0000°E)
Time: 01:21:31
(UTC+01:00)

H-2A R/B - Visible Passes

Search period start: 26 January 2015 00:00
Search period end: 05 February 2015 00:00
Orbit: 263 x 33553 km, 28.2° (Epoch: 23 January)

Date Brightness Start Highest point End Pass type
(mag) Time Alt. Az. Time Alt. Az. Time Alt. Az.
27 Jan 6.2 04:54:20 28° NW 13:25:27 33° SW 13:39:39 10° SSE visible
28 Jan 7.8 00:33:23 31° NE 00:33:23 31° NE 09:02:36 10° ESE visible
29 Jan 5.6 06:01:57 12° NW 14:41:28 18° SSW 14:48:25 10° S visible
30 Jan 7.7 01:40:56 44° NNE 01:40:56 44° NNE 10:15:24 10° SE visible
30 Jan 2.0 20:31:16 10° WSW 20:33:51 58° NNW 20:36:55 28° NE visible
30 Jan 2.0 20:31:16 10° WSW 20:33:51 58° NNW 20:36:49 28° NE visible
01 Feb 7.1 02:48:21 48° N 10:49:47 61° SW 11:26:18 10° SE visible
01 Feb 4.0 21:40:50 10° WNW 22:27:16 - ENE 06:35:09 10° ESE visible
03 Feb 6.5 03:55:37 39° NW 12:16:17 42° SW 12:36:03 10° SSE visible
03 Feb 5.4 22:50:48 10° WNW 23:34:29 21° NE 07:55:07 10° ESE visible
